Dewpoint
66 65 65 66 66 66 67 66 66 66 67 65 67 67 66 67 67 67 67 67 67 66 65 65 64 65 63 63 64 63 63 62 61 62 63 63 60 60 58 56 55 56 59 59 56 55 55 55 54 56 57 56 57 59 52 48 48 52 49 48 51 53 53 55 53 52 54 57 57 55 53 52 54 59 56 55 56 57 56 55 55 53 53 55 54
65 65 65 66 65 65 65 65 65 66 66 67 66 66 68 68 66 65 65 67 67 65 63 64 64 67 63 62 63 63 63 62 62 64 63 62 62 58 58 56 58 57 63 60 59 56 57 56 54 55 56 55 60 55 53 55 53 51 57 57 56 56 57 55 53 53 53 56 57 54 54 57 55 62 59 60 58 60 60 58 59 58 56 50 51
65 66 65 65 65 67 66 65 64 65 65 65 66 66 66 67 66 64 67 65 66 66 67 64 65 63 63 65 63 64 64 63 66 64 63 62 60 60 60 60 62 63 60 60 58 56 57 59 60 58 59 61 59 56 57 56 57 56 56 59 58 56 53 53 53 53 54 55 58 56 62 60 59 57 56 59 59 58 57 59 59 59 56 58 59
65 64 65 65 65 64 64 65 65 65 65 66 66 65 66 66 65 66 65 66 66 67 66 63 64 63 63 62 65 64 64 64 64 63 62 62 62 62 62 62 60 60 61 61 59 60 59 58 57 58 58 61 59 57 57 59 60 58 56 57 58 56 55 54 57 59 57 55 57 56 58 61 61 60 60 60 60 58 56 56 59 58 57 57 58
64 64 65 65 65 65 65 65 65 64 65 65 65 65 66 66 66 63 65 65 64 63 64 63 63 63 64 63 62 62 62 63 62 64 64 64 63 62 62 61 62 62 62 62 61 61 59 58 57 58 59 60 60 60 60 60 62 61 61 61 60 59 58 59 59 59 58 57 57 57 58 58 58 58 58 56 55 55 55 55 53 53 53 57 58
64 64 64 64 64 64 64 64 65 64 64 64 65 65 65 65 64 65 64 64 65 63 64 63 62 62 62 61 62 61 61 60 58 58 59 61 63 63 62 62 61 61 62 62 61 62 62 61 61 61 61 60 60 60 60 60 61 61 60 60 60 60 60 60 60 59 58 58 58 57 58 57 57 58 58 58 57 55 54 54 55 55 58 58 58
64 63 63 62 63 63 63 65 65 64 64 65 65 66 65 64 63 64 65 64 63 63 63 62 63 63 63 62 61 60 57 56 55 54 55 56 59 60 63 63 63 62 61 62 62 62 62 62 62 62 61 61 61 60 60 60 60 61 61 60 60 60 59 59 59 59 58 57 57 57 57 57 58 57 57 58 56 56 55 58 57 59 59 58 58
63 62 64 63 63 65 65 66 65 65 66 65 65 65 65 63 63 63 64 62 62 62 63 64 62 60 60 59 58 56 53 52 52 52 53 53 54 54 56 60 62 62 63 62 62 61 63 62 62 62 61 59 59 59 58 58 58 58 59 60 60 60 58 59 58 57 57 56 56 57 58 57 57 57 56 56 56 56 58 57 56 56 57 60 56
63 62 62 63 63 63 64 62 62 62 62 62 63 62 62 62 61 61 60 60 59 58 59 58 58 56 55 56 54 53 53 53 52 51 51 52 52 53 54 55 57 59 58 58 59 60 61 62 62 59 59 59 58 58 57 56 58 57 57 58 58 58 58 58 58 58 58 56 56 57 57 56 56 56 56 56 55 56 58 57 56 56 56 55 55
62 61 60 60 60 59 59 60 60 60 60 61 60 60 60 59 59 58 58 58 57 58 57 56 55 55 55 55 53 52 52 53 52 49 49 51 52 54 55 57 57 58 59 59 58 61 61 60 59 60 59 58 58 57 56 56 56 56 57 56 57 56 56 57 57 57 57 56 56 56 56 55 56 56 56 57 58 57 56 55 53 53 53 52 53
59 58 58 58 58 58 58 58 58 58 59 59 59 58 57 58 58 57 58 57 57 56 55 53 54 53 52 53 53 52 51 51 48 42 43 44 50 54 56 57 58 57 56 55 55 55 56 57 59 60 61 61 58 56 54 54 53 54 56 56 56 56 55 54 55 54 55 55 56 56 55 55 55 57 57 57 56 53 53 53 53 51 50 49 49
55 55 55 56 55 55 56 56 56 57 57 56 56 56 57 56 55 54 54 54 54 55 53 53 53 53 51 49 50 51 53 49 42 43 43 42 45 49 55 57 56 55 54 53 52 53 54 55 58 59 57 56 55 56 57 54 51 51 51 52 52 51 53 54 53 52 53 53 53 54 54 54 54 55 53 53 52 52 52 51 51 51 50 49 49
49 51 52 52 52 56 53 52 52 54 54 54 55 54 53 51 52 51 51 53 53 52 52 53 52 53 51 47 47 48 51 45 42 43 42 40 39 45 53 56 55 55 54 53 52 52 54 54 54 54 55 55 53 51 51 54 54 52 53 53 52 46 41 42 48 53 53 52 52 53 54 54 52 53 53 52 51 50 50 50 51 51 51 50 49
45 45 46 46 47 48 48 48 48 49 50 50 51 50 50 51 53 54 54 55 55 54 54 53 53 53 54 51 49 48 50 49 42 41 40 40 39 42 52 55 57 56 54 52 54 55 54 53 53 53 53 53 49 50 51 52 54 55 55 54 54 54 50 42 41 44 50 52 53 53 54 53 52 52 53 53 51 50 50 50 50 49 49 49 50
45 47 47 47 47 47 46 47 47 48 49 50 51 50 52 54 53 55 55 55 54 54 55 55 55 54 54 54 52 49 50 43 41 40 40 39 39 44 52 55 57 57 57 56 54 55 54 52 53 54 53 52 50 50 51 50 51 54 55 56 56 55 54 54 54 52 52 52 52 52 52 51 50 52 52 52 52 51 51 51 50 49 49 50 48
45 47 46 46 46 47 47 49 49 48 48 49 49 49 52 53 54 57 56 57 56 58 57 57 56 54 55 53 51 50 50 38 40 41 40 38 40 50 51 52 56 55 55 54 54 54 54 54 54 54 51 49 45 42 44 46 51 52 53 52 52 53 55 55 49 49 52 51 49 49 50 47 42 44 44 47 50 51 49 48 49 50 50 49 48
46 48 48 47 48 47 46 47 49 49 49 49 48 51 51 52 53 54 54 57 56 57 56 59 57 56 54 53 49 53 50 44 35 39 39 39 44 48 49 47 51 55 56 54 55 55 54 52 52 55 53 48 44 39 39 47 51 49 49 50 51 50 54 52 43 39 39 40 39 38 39 39 40 41 40 40 44 45 47 46 45 48 49 48 48
46 46 45 45 46 48 48 47 48 48 48 48 50 53 55 54 53 55 54 53 57 58 51 51 52 53 56 53 52 53 54 48 37 40 40 38 44 52 47 46 49 53 51 54 54 56 47 45 47 51 54 52 38 38 37 49 50 49 48 48 48 49 50 54 51 50 44 40 38 37 38 39 38 39 41 41 40 44 45 43 45 46 46 45 42
41 42 43 43 45 46 47 48 48 49 49 51 53 53 53 53 54 56 54 53 53 49 49 49 51 54 56 57 54 55 56 52 38 39 37 37 45 51 49 47 48 49 48 47 52 53 48 47 49 52 53 49 35 37 37 48 51 50 49 48 45 48 50 49 47 51 51 48 49 49 47 45 45 46 47 45 42 45 46 45 46 46 45 45 45
37 40 42 44 45 44 47 48 50 48 46 49 50 51 53 52 55 55 55 50 48 50 53 53 53 54 56 56 56 56 56 55 47 36 39 40 40 49 50 50 47 46 44 40 40 41 51 51 52 45 43 38 37 37 38 41 50 50 50 48 48 47 50 48 48 48 48 48 49 51 48 48 48 47 47 49 48 47 46 47 47 47 48 47 46
41 41 42 42 42 42 45 46 50 49 47 49 50 51 51 53 54 52 53 53 55 55 56 56 53 55 55 55 54 56 54 54 54 39 39 40 39 45 49 49 47 47 44 43 41 41 41 45 50 45 39 39 38 36 38 38 41 48 50 49 49 50 45 48 48 50 47 47 48 49 49 50 50 48 47 48 50 48 47 47 48 49 48 46 46
43 42 43 42 45 46 49 52 53 51 51 52 54 53 55 56 54 52 53 54 55 54 54 53 53 53 54 55 54 53 54 57 60 42 39 40 39 39 48 49 49 48 48 46 45 44 45 45 52 45 39 39 38 38 38 37 36 43 48 44 44 40 46 47 47 47 47 46 44 43 45 45 44 46 49 49 50 51 50 49 48 48 48 48 47
43 44 45 44 48 49 51 54 55 52 54 55 56 54 55 56 56 54 54 53 53 53 52 51 49 48 49 49 48 47 51 53 47 49 42 40 39 39 39 41 39 47 48 46 47 47 46 51 49 43 38 38 38 38 38 37 38 41 41 41 41 40 42 45 46 46 46 45 46 45 44 43 42 42 43 45 47 51 52 51 51 49 49 49 49
46 48 50 47 48 51 48 49 50 51 50 53 54 54 53 53 52 51 50 50 48 47 46 44 44 45 44 45 45 45 49 48 47 43 43 40 42 41 40 39 39 42 45 46 47 47 47 50 45 40 39 39 38 37 37 38 39 39 39 39 39 41 44 45 45 46 46 45 45 44 43 42 42 42 41 43 44 50 51 50 49 49 49 50 49
49 48 47 45 45 43 47 47 46 48 50 51 52 50 50 50 49 49 49 47 43 41 39 38 41 41 40 41 42 44 46 44 43 42 41 41 39 38 38 38 40 40 45 47 47 48 44 39 39 39 39 39 39 39 38 39 38 38 38 38 42 43 44 45 46 46 45 44 44 44 43 43 43 43 44 45 47 47 50 49 49 49 50 50 49
47 46 46 44 43 42 44 45 44 49 50 46 47 49 49 48 47 45 43 42 40 40 37 39 38 37 38 40 42 42 44 42 41 40 41 41 40 39 38 39 42 43 43 43 41 39 39 39 39 38 39 38 41 42 43 43 41 41 40 41 43 45 44 44 45 45 44 44 43 43 42 41 41 41 44 48 47 46 46 47 47 48 48 48 47
45 44 43 40 40 40 43 43 44 46 45 43 43 43 40 41 44 42 39 39 39 38 40 39 38 37 39 40 39 37 37 38 39 39 39 39 39 40 40 41 42 43 45 47 44 41 41 41 40 39 38 38 38 39 39 41 43 45 47 46 46 45 45 46 46 46 47 46 44 44 44 44 44 46 46 47 47 47 49 48 47 47 47 48 49
43 39 40 39 37 38 41 46 44 39 40 41 39 38 38 38 41 42 41 42 40 40 40 40 39 39 37 36 36 36 36 36 36 38 39 38 39 39 39 42 42 42 42 41 40 40 40 41 41 43 44 44 44 44 44 47 47 47 48 48 46 47 48 48 49 48 49 47 46 48 47 46 45 47 47 47 47 47 49 50 49 48 48 47 46
43 39 38 37 39 40 42 42 39 39 39 39 38 42 43 40 41 40 42 41 42 39 38 37 38 38 36 37 36 36 35 35 37 37 38 37 38 39 40 40 40 41 42 38 39 40 40 42 42 43 43 41 39 38 36 37 36 37 39 39 42 47 47 48 46 48 47 45 47 48 47 47 48 47 46 47 47 47 48 48 49 49 48 47 46
40 37 36 37 40 40 41 40 38 38 37 37 38 40 40 40 40 38 39 39 37 36 36 38 39 39 38 39 39 38 36 38 37 36 36 36 36 36 37 37 37 38 39 37 38 39 42 42 39 37 38 39 38 38 38 38 39 39 40 39 41 46 47 45 45 47 47 47 47 46 46 46 46 47 46 46 45 46 47 45 48 48 47 47 46
37 36 38 40 41 42 40 39 39 37 38 40 39 39 38 38 36 36 38 38 36 36 36 36 36 36 40 38 40 36 36 36 36 36 36 36 36 36 36 36 37 37 37 37 41 42 40 39 39 40 40 40 39 38 38 39 39 39 40 40 41 42 43 45 46 45 45 45 45 45 46 45 45 46 45 45 45 46 47 47 48 47 46 45 45
38 38 40 41 41 39 38 39 40 39 38 37 36 37 35 37 36 35 36 35 36 36 35 35 35 35 36 37 40 38 36 36 36 35 36 36 36 36 38 38 38 37 36 35 39 40 39 39 40 42 40 38 38 38 38 38 37 37 37 37 38 39 41 43 44 44 42 43 44 43 44 43 42 43 43 42 42 44 45 44 45 45 46 47 47
40 40 40 40 40 39 36 38 38 38 38 36 37 35 33 33 34 34 35 35 35 35 35 35 35 36 36 35 36 36 35 36 35 35 35 35 35 36 38 38 38 37 37 40 39 37 37 37 38 37 37 37 37 37 37 37 37 37 37 37 37 38 38 39 38 38 38 38 39 38 39 40 41 41 39 42 42 42 41 42 42 43 43 44 44
40 40 40 41 39 37 36 37 36 36 36 36 35 32 31 35 32 34 35 34 34 34 34 34 34 35 35 35 35 35 36 36 35 35 35 35 35 36 36 39 37 37 37 38 37 36 36 35 35 35 35 36 36 36 37 36 37 37 37 37 37 37 37 38 37 37 37 37 37 37 37 37 38 40 41 43 43 42 42 41 42 41 41 41 41
36 40 44 41 38 37 36 35 35 35 36 35 33 32 34 35 34 33 31 31 32 31 30 33 33 34 36 35 35 35 35 36 35 35 35 35 35 35 35 36 35 35 36 37 36 35 35 35 35 35 36 36 36 36 37 38 37 37 37 37 37 38 37 37 37 38 37 37 36 36 36 36 37 38 39 39 39 41 41 42 41 41 41 41 41
35 36 37 38 36 36 35 35 35 36 35 35 34 33 33 32 31 32 31 31 32 31 30 30 29 32 33 35 35 34 33 35 35 34 35 34 34 34 33 32 32 32 33 33 34 35 35 35 35 36 36 36 37 36 36 37 37 37 37 37 38 37 38 37 37 37 38 37 36 36 37 36 36 37 36 35 35 34 35 35 36 37 37 37 37
33 34 35 36 37 35 36 35 36 36 32 34 33 32 33 33 32 31 31 30 31 32 30 28 24 23 28 32 36 32 32 33 33 33 34 33 33 32 30 29 29 29 29 30 32 33 34 34 35 35 35 36 36 35 36 37 36 36 38 37 38 38 37 38 37 36 36 37 37 37 37 36 37 37 37 35 34 35 34 35 36 35 34 34 32
35 33 34 36 38 37 36 33 31 31 33 31 33 32 30 30 31 30 30 29 30 30 29 26 29 19 19 24 31 30 29 31 31 30 30 30 28 28 28 28 28 27 27 28 30 30 31 33 34 33 33 34 35 34 35 35 35 35 35 35 35 36 38 36 35 34 35 35 37 37 38 39 38 38 36 36 35 35 35 34 33 32 32 31 31
36 33 31 31 32 32 31 31 31 31 31 30 29 29 29 27 27 27 26 25 26 26 27 28 25 22 20 22 23 28 27 22 25 23 25 25 25 25 25 28 28 29 29 27 29 27 28 32 32 32 33 33 33 33 33 33 33 34 34 33 33 33 33 32 31 31 33 33 34 34 34 35 35 35 35 36 35 35 33 31 29 30 30 30 30
31 32 32 31 31 33 31 31 28 28 27 26 24 25 24 24 23 24 23 22 23 21 22 26 25 22 21 21 23 25 24 22 22 22 23 22 22 24 23 25 27 29 28 28 26 27 26 26 29 28 29 31 31 32 32 33 33 33 32 32 31 30 30 27 28 30 31 31 30 29 30 30 31 32 32 33 33 32 31 30 29 29 28 28 27
30 30 30 29 29 30 28 27 26 25 25 23 21 22 21 22 24 23 21 24 22 22 23 22 22 22 23 24 29 27 28 21 21 22 22 23 22 21 20 20 21 24 25 26 25 25 27 25 27 27 27 28 28 29 29 31 31 31 31 30 28 27 24 22 23 26 28 29 28 28 27 27 29 30 31 32 34 33 32 31 30 28 28 28 28
30 29 28 28 28 25 25 24 24 27 26 24 21 21 21 21 22 25 22 21 21 21 20 21 20 22 28 28 28 28 28 20 20 21 21 20 19 20 20 19 18 21 21 22 23 24 23 24 25 25 25 26 27 26 27 29 30 30 30 28 25 23 20 16 16 16 21 26 27 27 26 26 26 28 29 34 31 32 32 32 31 31 31 30 29
30 27 27 27 26 24 22 22 20 21 21 21 20 21 22 21 22 24 24 22 20 20 18 18 19 19 21 24 25 23 19 19 20 19 17 18 17 19 18 18 19 20 19 21 21 21 20 21 22 23 23 23 25 24 25 26 28 30 28 25 22 21 19 18 18 18 18 21 23 25 22 22 24 26 26 28 29 30 31 31 32 31 31 31 30
29 28 25 24 21 23 22 20 19 19 18 21 21 21 24 24 24 21 18 20 19 19 18 18 18 18 18 19 21 19 15 17 16 15 18 19 18 18 18 19 20 21 20 19 20 22 20 20 21 21 24 22 23 25 22 25 27 27 24 21 23 23 20 20 19 19 19 20 21 21 20 20 21 22 25 26 26 28 29 31 32 31 31 31 31
26 25 24 23 26 20 19 21 19 20 18 23 20 22 19 22 22 18 18 17 18 18 18 17 18 17 17 17 16 17 16 15 18 18 17 18 18 17 18 20 21 23 20 20 21 24 22 21 23 22 24 21 22 22 20 20 26 23 22 21 21 22 20 20 20 20 20 21 21 21 21 21 20 19 19 19 23 25 27 29 30 31 31 32 32
26 25 24 23 23 22 20 19 19 18 22 22 21 17 17 18 16 18 17 17 18 17 18 17 17 18 18 17 16 17 17 16 17 17 17 17 18 18 19 20 22 23 22 20 21 25 22 22 21 21 21 22 21 21 20 21 25 24 23 22 21 21 21 20 20 21 21 21 20 20 22 22 20 21 21 19 18 19 23 27 30 30 31 31 31
30 25 24 22 21 21 21 21 21 17 21 22 20 16 17 18 18 17 18 17 18 19 17 17 18 18 16 17 17 17 18 16 16 17 18 18 20 20 20 23 22 22 22 21 23 21 22 22 22 22 23 23 22 23 22 25 23 22 22 21 20 20 20 20 20 21 20 20 20 20 20 21 21 21 21 21 20 18 20 21 26 29 31 31 31
24 24 24 25 22 20 20 21 18 22 22 18 17 16 15 14 17 17 16 16 18 18 17 17 17 18 17 17 18 17 18 17 17 18 16 17 17 19 24 25 23 22 23 22 23 22 22 21 23 23 23 24 23 22 26 26 24 23 21 20 20 20 20 21 19 19 18 18 19 19 19 19 19 20 21 22 22 21 21 20 22 27 31 32 31
25 23 23 23 22 21 21 18 20 19 22 15 16 22 15 14 14 16 17 15 16 17 17 17 16 17 17 17 17 17 18 19 17 16 16 17 20 22 23 25 26 25 22 21 21 23 23 22 24 23 23 23 22 24 26 25 24 23 21 20 20 21 20 21 20 18 20 19 18 18 18 18 19 20 22 23 23 22 22 21 21 25 28 30 31
25 23 23 23 22 23 20 20 19 17 17 16 14 15 15 15 14 14 16 16 15 16 16 19 17 16 16 16 16 16 17 17 16 16 16 18 18 22 22 24 25 23 21 21 20 20 20 23 24 24 24 24 23 24 25 23 23 22 21 20 21 21 20 21 21 21 21 20 20 20 19 19 20 20 21 21 21 21 22 23 24 23 23 23 26
25 26 24 23 23 26 22 19 17 15 16 19 15 14 15 15 16 14 15 18 16 16 16 19 16 15 15 15 17 16 17 17 17 16 16 17 20 21 22 24 22 24 22 23 21 19 21 23 21 22 23 23 22 23 24 22 22 22 22 22 21 21 21 21 21 21 22 22 21 20 20 20 20 20 21 21 21 21 24 24 23 22 22 22 21